{"data":{"norad_id":60401,"intl_designator":"2024-141D","name":"STARLINK-11232 [DTC]","alt_names":[],"object_type":"PAYLOAD","status":"ACTIVE","operator":null,"country":"US","launch_date":"2024-08-10","launch_site_code":"AFETR","launch_vehicle":null,"mission":null,"orbit_class":"UNKNOWN","rcs_meters":null,"size_class":null,"mass_kg":null,"dimensions":null,"purposes":["comms"],"wikipedia_slug":null,"has_3d_model":false,"image_url":null,"decayed_at":null,"tle_current":{"epoch":"2026-05-25T04:50:32.299872Z","epoch_age_seconds":68339,"freshness":"FRESH","line1":"1 60401U 24141D   26145.20176273  .00000788  00000+0  11359-4 0  9994","line2":"2 60401  53.1591  68.8168 0000940  95.6041 264.5084 15.69714223103768","mean_motion":15.69714223,"eccentricity":9.4e-5,"inclination_deg":53.1591,"raan_deg":68.8168,"arg_perigee_deg":95.6041,"mean_anomaly_deg":264.5084,"bstar":1.1359e-5,"rev_number":10376,"period_min":91.736443417574,"perigee_km":359.08130778076,"apogee_km":360.34802389394,"semimajor_km":6737.8516658374,"source":"CELESTRAK","updated_at":"2026-05-25T13:38:19.266197Z"}}}